Previsão horária em Cerny Most

Hoje, 27 Julho, Terça-feira

Tempo Temperatura Precipitação Vento Pressão Humidade
00:00 +19°C° 0 mm 1 m/s 738 mmHg 93%
01:00 +18°C° 0 mm 1 m/s 738 mmHg 92%
02:00 +18°C° 0 mm 1 m/s 738 mmHg 93%
03:00 +18°C° 0 mm 1 m/s 738 mmHg 93%
04:00 +18°C° 0 mm 1 m/s 738 mmHg 93%
05:00 +19°C° 0 mm 1 m/s 738 mmHg 89%
06:00 +19°C° 0 mm 2 m/s 738 mmHg 85%
07:00 +20°C° 0 mm 2 m/s 739 mmHg 81%
08:00 +23°C° 0 mm 2 m/s 739 mmHg 74%
09:00 +24°C° 0 mm 2 m/s 739 mmHg 67%
10:00 +26°C° 0 mm 3 m/s 739 mmHg 59%
11:00 +27°C° 0 mm 3 m/s 739 mmHg 55%
12:00 +28°C° 0 mm 3 m/s 739 mmHg 50%
13:00 +29°C° 0 mm 3 m/s 739 mmHg 45%
14:00 +29°C° 0 mm 2 m/s 739 mmHg 47%
15:00 +28°C° 0 mm 2 m/s 738 mmHg 48%
16:00 +28°C° 0 mm 2 m/s 738 mmHg 49%
17:00 +27°C° 0.1 mm 2 m/s 738 mmHg 56%
18:00 +26°C° 0.1 mm 1 m/s 738 mmHg 63%
19:00 +24°C° 0.1 mm 1 m/s 738 mmHg 70%
20:00 +23°C° 0.5 mm 1 m/s 738 mmHg 73%
21:00 +22°C° 0.5 mm 1 m/s 738 mmHg 77%
22:00 +19°C° 0.5 mm 0 m/s 738 mmHg 80%
23:00 +21°C° 0.1 mm 1 m/s 738 mmHg 81%

Amanhã, 28 Julho, Quarta-feira

Tempo Temperatura Precipitação Vento Pressão Humidade
00:00 +21°C° 0.1 mm 1 m/s 738 mmHg 82%
01:00 +21°C° 0.1 mm 1 m/s 738 mmHg 83%
02:00 +21°C° 0.1 mm 1 m/s 738 mmHg 83%
03:00 +20°C° 0.1 mm 1 m/s 738 mmHg 84%
04:00 +20°C° 0.1 mm 1 m/s 738 mmHg 85%
05:00 +21°C° 0 mm 1 m/s 738 mmHg 85%
06:00 +21°C° 0 mm 1 m/s 738 mmHg 84%
07:00 +21°C° 0 mm 1 m/s 738 mmHg 83%
08:00 +23°C° 0 mm 2 m/s 738 mmHg 74%
09:00 +25°C° 0 mm 2 m/s 738 mmHg 64%
10:00 +26°C° 0 mm 3 m/s 738 mmHg 55%
11:00 +27°C° 0 mm 4 m/s 738 mmHg 54%
12:00 +27°C° 0 mm 4 m/s 738 mmHg 53%
13:00 +27°C° 0 mm 5 m/s 738 mmHg 52%
14:00 +25°C° 0.2 mm 4 m/s 738 mmHg 59%
15:00 +22°C° 0.2 mm 4 m/s 739 mmHg 66%
16:00 +20°C° 0.2 mm 3 m/s 739 mmHg 73%
17:00 +20°C° 0 mm 3 m/s 739 mmHg 74%
18:00 +19°C° 0 mm 3 m/s 739 mmHg 75%
19:00 +19°C° 0 mm 3 m/s 739 mmHg 76%
20:00 +18°C° 0 mm 3 m/s 739 mmHg 80%
21:00 +17°C° 0 mm 3 m/s 739 mmHg 84%
22:00 +16°C° 0 mm 2 m/s 739 mmHg 88%
23:00 +16°C° 0 mm 2 m/s 739 mmHg 89%

Depois de amanhã, 29 Julho, Quinta-feira

Tempo Temperatura Precipitação Vento Pressão Humidade
00:00 +16°C° 0 mm 2 m/s 739 mmHg 90%
01:00 +15°C° 0 mm 2 m/s 739 mmHg 91%
02:00 +15°C° 0 mm 2 m/s 739 mmHg 91%
03:00 +15°C° 0 mm 2 m/s 739 mmHg 91%
04:00 +15°C° 0 mm 2 m/s 739 mmHg 92%
05:00 +16°C° 0 mm 2 m/s 739 mmHg 87%
06:00 +17°C° 0 mm 2 m/s 739 mmHg 81%
07:00 +19°C° 0 mm 3 m/s 739 mmHg 76%
08:00 +21°C° 0 mm 3 m/s 739 mmHg 69%
09:00 +22°C° 0 mm 3 m/s 739 mmHg 61%
10:00 +25°C° 0 mm 4 m/s 739 mmHg 54%
11:00 +26°C° 0 mm 4 m/s 739 mmHg 50%
12:00 +27°C° 0 mm 4 m/s 738 mmHg 46%
13:00 +28°C° 0 mm 5 m/s 738 mmHg 42%
14:00 +28°C° 0 mm 5 m/s 738 mmHg 42%
15:00 +29°C° 0 mm 5 m/s 738 mmHg 42%
16:00 +29°C° 0 mm 5 m/s 737 mmHg 42%
17:00 +27°C° 0 mm 4 m/s 737 mmHg 48%
18:00 +26°C° 0 mm 3 m/s 737 mmHg 54%
19:00 +25°C° 0 mm 2 m/s 737 mmHg 61%
20:00 +23°C° 0 mm 2 m/s 737 mmHg 65%
21:00 +21°C° 0 mm 2 m/s 737 mmHg 69%
22:00 +20°C° 0 mm 2 m/s 737 mmHg 73%
23:00 +19°C° 0 mm 2 m/s 737 mmHg 75%

30 Julho, Sexta-feira

Tempo Temperatura Precipitação Vento Pressão Humidade
00:00 +19°C° 0 mm 2 m/s 737 mmHg 77%
01:00 +19°C° 0 mm 1 m/s 737 mmHg 79%
02:00 +19°C° 0.1 mm 1 m/s 737 mmHg 80%
03:00 +19°C° 0.1 mm 1 m/s 737 mmHg 82%
04:00 +17°C° 0.1 mm 2 m/s 736 mmHg 83%
05:00 +19°C° 0 mm 1 m/s 736 mmHg 81%
06:00 +20°C° 0 mm 1 m/s 736 mmHg 78%
07:00 +21°C° 0 mm 1 m/s 736 mmHg 76%
08:00 +21°C° 0 mm 2 m/s 736 mmHg 69%
09:00 +24°C° 0 mm 2 m/s 736 mmHg 62%
10:00 +25°C° 0 mm 2 m/s 736 mmHg 55%
11:00 +26°C° 0 mm 2 m/s 736 mmHg 53%
12:00 +27°C° 0 mm 2 m/s 736 mmHg 51%
13:00 +28°C° 0 mm 2 m/s 735 mmHg 48%
14:00 +28°C° 0 mm 2 m/s 735 mmHg 50%
15:00 +28°C° 0 mm 2 m/s 735 mmHg 51%
16:00 +28°C° 0 mm 2 m/s 734 mmHg 52%
17:00 +27°C° 0.1 mm 2 m/s 734 mmHg 57%
18:00 +26°C° 0.1 mm 2 m/s 734 mmHg 62%
19:00 +25°C° 0.1 mm 2 m/s 734 mmHg 66%
20:00 +24°C° 0.1 mm 2 m/s 734 mmHg 70%
21:00 +23°C° 0.1 mm 2 m/s 734 mmHg 73%
22:00 +21°C° 0.1 mm 2 m/s 734 mmHg 77%
23:00 +20°C° 0.3 mm 2 m/s 734 mmHg 79%

31 Julho, Sábado

Tempo Temperatura Precipitação Vento Pressão Humidade
00:00 +20°C° 0.3 mm 3 m/s 734 mmHg 82%
01:00 +19°C° 0.3 mm 3 m/s 734 mmHg 85%
02:00 +19°C° 0 mm 4 m/s 734 mmHg 86%
03:00 +19°C° 0 mm 4 m/s 734 mmHg 87%
04:00 +18°C° 0 mm 4 m/s 734 mmHg 89%
05:00 +19°C° 0 mm 4 m/s 734 mmHg 86%
06:00 +19°C° 0 mm 5 m/s 735 mmHg 82%
07:00 +20°C° 0 mm 5 m/s 735 mmHg 79%
08:00 +21°C° 0 mm 5 m/s 735 mmHg 72%
09:00 +22°C° 0 mm 6 m/s 735 mmHg 64%
10:00 +23°C° 0 mm 6 m/s 735 mmHg 56%
11:00 +24°C° 0 mm 6 m/s 735 mmHg 51%
12:00 +24°C° 0 mm 6 m/s 735 mmHg 46%
13:00 +26°C° 0 mm 6 m/s 735 mmHg 41%
14:00 +26°C° 0 mm 5 m/s 735 mmHg 41%
15:00 +26°C° 0 mm 5 m/s 735 mmHg 40%
16:00 +26°C° 0 mm 5 m/s 735 mmHg 40%
17:00 +25°C° 0 mm 5 m/s 735 mmHg 44%
18:00 +22°C° 0 mm 4 m/s 735 mmHg 49%
19:00 +21°C° 0 mm 4 m/s 735 mmHg 53%
20:00 +20°C° 0 mm 3 m/s 736 mmHg 58%
21:00 +19°C° 0 mm 3 m/s 736 mmHg 63%
22:00 +18°C° 0 mm 3 m/s 736 mmHg 68%
23:00 +17°C° 0 mm 3 m/s 736 mmHg 71%

1 Agosto, Domingo

Tempo Temperatura Precipitação Vento Pressão Humidade
00:00 +16°C° 0 mm 3 m/s 736 mmHg 74%
01:00 +16°C° 0 mm 3 m/s 737 mmHg 77%
02:00 +15°C° 0 mm 2 m/s 736 mmHg 79%
03:00 +15°C° 0 mm 2 m/s 736 mmHg 81%
04:00 +14°C° 0 mm 2 m/s 736 mmHg 82%
05:00 +15°C° 0 mm 2 m/s 736 mmHg 78%
06:00 +16°C° 0 mm 2 m/s 736 mmHg 74%
07:00 +17°C° 0 mm 2 m/s 737 mmHg 69%
08:00 +19°C° 0 mm 3 m/s 737 mmHg 64%
09:00 +20°C° 0 mm 3 m/s 736 mmHg 59%
10:00 +22°C° 0 mm 3 m/s 736 mmHg 53%
11:00 +22°C° 0 mm 4 m/s 736 mmHg 51%
12:00 +23°C° 0 mm 4 m/s 736 mmHg 48%
13:00 +25°C° 0 mm 5 m/s 735 mmHg 45%
14:00 +23°C° 0 mm 5 m/s 735 mmHg 47%
15:00 +23°C° 0 mm 5 m/s 735 mmHg 49%
16:00 +23°C° 0 mm 5 m/s 735 mmHg 51%
17:00 +22°C° 0.2 mm 5 m/s 735 mmHg 58%
18:00 +21°C° 0.2 mm 4 m/s 735 mmHg 64%
19:00 +19°C° 0.2 mm 4 m/s 736 mmHg 71%
20:00 +18°C° 0.1 mm 3 m/s 736 mmHg 77%
21:00 +17°C° 0.1 mm 3 m/s 736 mmHg 82%
22:00 +16°C° 0.1 mm 3 m/s 736 mmHg 88%
23:00 +14°C° 0 mm 3 m/s 736 mmHg 90%
Mostrar mais

Necessitamos do seu Consentimento

A Meteoprog e os seus Fornecedores de Serviços podem armazenar e aceder a dados pessoais como cookies, identificadores do dispositivo ou outras tecnologias semelhantes existentes no seu dispositivo e processar estes dados para personalizar conteúdos e anúncios, assim como funcionalidades nas redes sociais e análise de tráfego.

  • Armazenar e/ou aceder a informações no seu dispositivo

    Os cookies, identificadores do dispositivo ou outras informações podem ser armazenados ou acedidos no seu dispositivo, para os fins acima indicados.

  • Anúncios e conteúdos personalizados, medição de anúncios e conteúdos, dados sobre o público-alvo e desenvolvimento de produtos

    Os anúncios e os conteúdos podem ser personalizados com base num perfil. Podem ser adicionados dados adicionais para uma maior personalização dos anúncios e dos conteúdos. A eficácia dos anúncios e dos conteúdos pode ser medida. Podem ser obtidas informações sobre o público que visualizou os anúncios e os conteúdos. Estes dados podem ser usados para desenvolver ou melhorar sistemas, softwares ou a experiência do utilizador.

Ao clicar em "Eu concordo”, permitirá o uso de cookies, identificadores do dispositivo e web beacons mencionados ou outras tecnologias semelhantes. As configurações do navegador do seu dispositivo podem ser alteradas.

Para certos fins, podem ser invocados interesses legítimos ao invés de consentimento. Pode ler mais informação sobre este assunto na nossa Política de Privacidade e Cookies.